{"data":{"norad_id":47819,"intl_designator":"2021-018AJ","name":"STARLINK-2402","alt_names":[],"object_type":"PAYLOAD","status":"ACTIVE","operator":null,"country":"US","launch_date":"2021-03-11","launch_site_code":"AFETR","launch_vehicle":null,"mission":null,"orbit_class":"UNKNOWN","rcs_meters":null,"size_class":null,"mass_kg":null,"dimensions":null,"purposes":["comms"],"wikipedia_slug":null,"has_3d_model":false,"image_url":null,"decayed_at":null,"tle_current":{"epoch":"2026-05-24T23:37:46.058304Z","epoch_age_seconds":76383,"freshness":"FRESH","line1":"1 47819U 21018AJ  26144.98456086  .00002062  00000+0  78158-4 0  9996","line2":"2 47819  53.1582 248.1906 0001214  84.2452 275.8688 15.31709428288471","mean_motion":15.31709428,"eccentricity":0.0001214,"inclination_deg":53.1582,"raan_deg":248.1906,"arg_perigee_deg":84.2452,"mean_anomaly_deg":275.8688,"bstar":7.8158e-5,"rev_number":28847,"period_min":94.012609289756,"perigee_km":469.88044073703,"apogee_km":471.54334124777,"semimajor_km":6848.8488909924,"source":"CELESTRAK","updated_at":"2026-05-25T13:38:16.603166Z"}}}